DW9584 Weather Reports


time (UTC)temp
C
wind
direction
speed
KPH
gust
KPH
rain 1hr
cm
rain 24hr
cm
rain mn
cm
humidity
%
barometer
mb
20260903194528 30 160 0.0 6.4 0.00 2.01 2.01 72 1013.3
20260903193026 30 170 0.0 4.8 0.00 2.01 2.01 72 1013.5
20260903191535 29 209 0.0 4.8 0.00 2.01 2.01 71 1013.8
20260903190016 29 310 0.0 4.8 0.00 2.01 2.01 72 1014.2
20260903184512 29 269 0.0 11.3 0.00 2.01 2.01 74 1014.4
20260903183022 28 149 3.2 9.7 0.00 2.01 2.01 72 1014.3
20260903181531 28 275 1.6 4.8 0.00 2.06 2.01 73 1014.4
20260903180034 28 179 3.2 6.4 0.00 2.11 2.01 77 1014.4
20260903174528 28 179 1.6 8.0 0.00 2.21 2.01 77 1014.6
20260903173025 27 181 0.0 4.8 0.00 2.26 2.01 79 1014.7
20260903171535 27 321 0.0 6.4 0.03 2.26 2.01 79 1015.0
20260903170018 27 207 0.0 6.4 0.03 2.26 2.01 79 1015.2
20260903164519 27 205 1.6 6.4 0.03 2.26 2.01 81 1015.5
20260903163015 27 251 0.0 8.0 0.03 2.26 2.01 81 1015.7
20260903161531 27 271 0.0 9.7 0.00 2.24 1.98 82 1016.1
20260903160033 26 243 1.6 6.4 0.00 2.24 1.98 82 1016.4
20260903154532 26 300 1.6 8.0 0.00 2.24 1.98 83 1016.4
20260903153031 26 298 0.0 9.7 0.00 2.24 1.98 85 1016.4
20260903151529 25 114 0.0 6.4 0.00 2.24 1.98 87 1016.5
20260903150027 25 275 0.0 6.4 0.00 2.24 1.98 89 1016.3
20260903144523 25 196 1.6 6.4 0.00 2.24 1.98 91 1016.2
20260903143031 23 321 0.0 8.0 0.00 2.24 1.98 94 1015.9
20260903141531 23 273 1.6 9.7 0.00 2.24 1.98 96 1016.1
20260903140034 23 167 1.6 17.7 0.00 2.24 1.98 96 1016.3
20260903134530 22 240 1.6 6.4 0.00 2.24 1.98 97 1015.9
20260903133029 22 61 0.0 4.8 0.00 2.24 1.98 97 1015.5
20260903131531 22 262 0.0 8.0 0.00 2.24 1.98 97 1015.3
20260903130004 22 345 0.0 6.4 0.00 2.24 1.98 97 1015.8
20260903124503 22 221 0.0 4.8 0.00 2.24 1.98 97 1015.8
20260903123005 22 352 0.0 8.0 0.00 2.24 1.98 97 1016.0
20260903121512 22 202 0.0 8.0 0.00 2.24 1.98 97 1016.0
20260903120008 21 167 0.0 3.2 0.03 2.24 1.98 97 1015.5
20260903114508 21 203 1.6 4.8 0.03 2.24 1.98 97 1016.7
20260903113009 21 293 0.0 6.4 0.03 2.24 1.98 97 1016.6
20260903111506 21 175 0.0 3.2 0.03 2.24 1.98 97 1017.3
20260903110004 21 282 0.0 3.2 0.05 2.21 1.96 97 1017.5
20260903104504 21 198 0.0 4.8 0.05 2.21 1.96 97 1017.2
20260903103018 21 259 0.0 3.2 0.08 2.21 1.96 97 1016.7
20260903101513 21 228 0.0 3.2 0.08 2.21 1.96 96 1016.9
20260903100014 21 229 0.0 3.2 0.05 2.16 1.91 96 1017.1
20260903094514 21 224 0.0 3.2 0.38 2.16 1.91 96 1017.2
20260903093014 21 260 0.0 3.2 0.86 2.13 1.88 96 1017.3
20260903091508 21 260 0.0 0.0 0.86 2.13 1.88 96 1017.4
20260903090008 21 260 0.0 0.0 0.84 2.11 1.85 96 1017.3
20260903084504 21 260 0.0 3.2 0.51 1.78 1.52 96 1019.2
20260903083021 21 312 0.0 6.4 0.03 1.27 1.02 96 1019.1
20260903081518 21 347 0.0 0.0 0.03 1.27 1.02 96 1017.1
20260903080018 21 347 0.0 0.0 0.03 1.27 1.02 96 1016.9
20260903074520 21 347 0.0 0.0 0.03 1.27 1.02 96 1017.1
20260903073023 21 347 0.0 0.0 0.03 1.24 0.99 96 1017.3
20260903071513 21 347 0.0 0.0 0.08 1.24 0.99 96 1017.1
20260903070016 21 347 0.0 1.6 0.38 1.24 0.99 95 1017.4
20260903064521 21 195 0.0 3.2 0.99 1.24 0.99 95 1017.5
20260903063023 21 195 0.0 1.6 0.97 1.22 0.97 95 1017.3
20260903061539 21 195 0.0 3.2 0.91 1.17 0.91 95 1017.7
20260903060026 21 195 0.0 1.6 0.61 0.86 0.61 95 1019.2
20260903054525 21 303 0.0 3.2 0.00 0.25 0.00 95 1019.4
20260903053020 21 326 0.0 0.0 0.00 0.25 0.00 95 1017.8
20260903051515 21 326 0.0 0.0 0.00 0.25 0.00 95 1017.7
20260903050016 21 326 0.0 3.2 0.00 0.25 0.00 95 1017.8
20260903044511 21 326 0.0 0.0 0.00 0.25 0.00 95 1017.7
20260903043010 21 326 0.0 0.0 0.00 0.25 0.00 95 1018.0
20260903041505 21 326 0.0 0.0 0.00 0.25 0.00 95 1018.2
20260903040004 21 326 0.0 0.0 0.00 0.25 0.00 95 1018.5
20260903034504 21 326 0.0 3.2 0.00 0.25 0.25 94 1018.6
20260903033026 21 326 0.0 0.0 0.00 0.25 0.25 94 1018.5
20260903031525 21 326 0.0 0.0 0.00 0.25 0.25 94 1018.7
20260903030018 21 326 0.0 0.0 0.00 0.25 0.25 94 1018.4
20260903024513 21 326 0.0 3.2 0.00 0.28 0.25 94 1018.7
20260903023010 21 326 0.0 0.0 0.00 0.28 0.25 94 1018.6
20260903021508 21 326 0.0 3.2 0.00 0.28 0.25 94 1018.2
20260903020010 21 342 0.0 1.6 0.00 0.28 0.25 95 1018.0
20260903014504 22 342 0.0 0.0 0.00 0.28 0.25 95 1018.1
20260903013027 22 342 0.0 1.6 0.00 0.28 0.25 95 1018.3
20260903011524 21 342 0.0 3.2 0.00 0.28 0.25 95 1018.4
20260903010017 22 342 0.0 3.2 0.00 0.28 0.25 95 1018.7
20260903004514 22 1 0.0 1.6 0.00 1.19 0.25 95 1018.4
20260903003015 22 1 0.0 0.0 0.00 1.88 0.25 95 1018.4
20260903001507 22 1 0.0 3.2 0.00 1.88 0.25 95 1018.3
20260903000008 22 1 0.0 3.2 0.00 1.88 0.25 95 1018.2
20260902234528 22 1 0.0 3.2 0.00 1.88 0.25 95 1018.0
20260902233030 22 1 0.0 0.0 0.00 1.88 0.25 95 1018.0
20260902231540 22 1 0.0 3.2 0.00 1.88 0.25 95 1018.1
20260902230023 22 1 0.0 3.2 0.00 1.88 0.25 95 1018.1
20260902224518 22 18 0.0 0.0 0.00 1.88 0.25 95 1018.3
20260902223027 22 18 0.0 0.0 0.00 1.88 0.25 95 1018.5
20260902221520 22 18 0.0 0.0 0.00 1.88 0.25 95 1018.8
20260902220010 22 18 0.0 3.2 0.00 1.88 0.25 95 1018.8
20260902214540 22 20 0.0 1.6 0.00 1.88 0.25 95 1018.5
20260902213030 22 20 0.0 1.6 0.00 1.88 0.25 95 1018.5
20260902211531 22 336 0.0 3.2 0.00 1.88 0.25 95 1018.2
20260902210025 22 336 0.0 0.0 0.00 1.88 0.25 95 1018.4
20260902204522 22 336 0.0 0.0 0.00 1.88 0.25 95 1018.5
20260902203018 22 336 0.0 0.0 0.00 1.88 0.25 95 1018.6
20260902201517 22 336 0.0 3.2 0.00 1.88 0.25 96 1018.4
20260902200031 22 334 0.0 3.2 0.00 1.88 0.25 96 1018.3